Notices

What's New in latest Release from April 7th, 2021:

- Updated Glossary, including Speed of Maximum Gust, and Total Hourly Precipitation

- Updated national and regional climate services offices contacts and prices information

- Addition of station inventory lists for 1981-2010, 1971-2000, and 1961-1990 Normals.

If you haven't already, please take our survey and provide feedback about our website: https://eccc.sondage-survey.ca/f/LanguageSelection.aspx?s=442ca660-fcf1-47c0-95a9-59707d6fd709

Hourly Data Report for August 19, 2003

TORONTO CITY
ONTARIO

43°40'00.000" N
79°24'00.000" W
112.50 m
6158355
71508
XTO

Download Data

Hourly Data (August 2003)
Hourly Data Report for August 19, 2003
TIME
LST
Temp Definition
°C
Dew Point Definition
°C
Rel Hum Definition
%
Precip. Amount Definition
mm

Wind Dir Definition
10's deg

Wind Spd Definition
km/h
Visibility Definition
km
Stn Press Definition
kPa
Hmdx Definition


Wind Chill Definition


Weather Definition


00:00 20.4 16.1 76   LegendMM LegendMM LegendMM 100.61 25   LegendNANA
01:00 18.8 15.7 82   LegendMM LegendMM LegendMM 100.63     LegendNANA
02:00 19.4 14.8 75   LegendMM LegendMM LegendMM 100.61     LegendNANA
03:00 18.0 14.3 79   LegendMM LegendMM LegendMM 100.61     LegendNANA
04:00 17.0 13.9 82   LegendMM LegendMM LegendMM 100.70     LegendNANA
05:00 17.4 13.7 79   LegendMM LegendMM LegendMM 100.75     LegendNANA
06:00 16.6 13.4 81   LegendMM LegendMM LegendMM 100.80     LegendNANA
07:00 18.9 13.6 71   LegendMM LegendMM LegendMM 100.84     LegendNANA
08:00 21.3 12.1 56   LegendMM LegendMM LegendMM 100.82     LegendNANA
09:00 23.7 12.6 50   LegendMM LegendMM LegendMM 100.79 26   LegendNANA
10:00 26.0 15.5 52   LegendMM LegendMM LegendMM 100.78 30   LegendNANA
11:00 26.7 16.1 52   LegendMM LegendMM LegendMM 100.77 31   LegendNANA
12:00 27.8 15.2 46   LegendMM LegendMM LegendMM 100.73 32   LegendNANA
13:00 28.1 13.6 41   LegendMM LegendMM LegendMM 100.71 31   LegendNANA
14:00 28.8 13.8 40   LegendMM LegendMM LegendMM 100.68 32   LegendNANA
15:00 29.7 14.5 40   LegendMM LegendMM LegendMM 100.67 33   LegendNANA
16:00 28.0 14.2 43   LegendMM LegendMM LegendMM 100.63 31   LegendNANA
17:00 26.8 15.2 49   LegendMM LegendMM LegendMM 100.59 31   LegendNANA
18:00 26.7 14.9 48   LegendMM LegendMM LegendMM 100.53 31   LegendNANA
19:00 25.4 17.7 62   LegendMM LegendMM LegendMM 100.52 31   LegendNANA
20:00 24.6 19.0 71   LegendMM LegendMM LegendMM 100.57 31   LegendNANA
21:00 23.1 19.1 78   LegendMM LegendMM LegendMM 100.64 30   LegendNANA
22:00 22.1 19.4 85   LegendMM LegendMM LegendMM 100.62 29   LegendNANA
23:00 21.1 18.0 82   LegendMM LegendMM LegendMM 100.62 27   LegendNANA

Notes on Data Quality.

Legend

  • E = Estimated
  • M = Missing
  • NA = Not Available*
  • [empty] = Indicates an unobserved value
Date modified: